253  
ASUS44 KCRP 220110  
HRRCRP  
 
SOUTH TEXAS REGIONAL WEATHER ROUNDUP  
NATIONAL WEATHER SERVICE CORPUS CHRISTI TX  
700 PM CST TUE NOV 21 2017  
 
TXZ229>244-220200-   
..CORPUS CHRISTI AREA OBSERVATIONS
 
 
 
CITY SKY/WX TMP DP RH WIND PRES REMARKS  
CORPUS CHRISTI CLOUDY 70 66 87 E7 29.86R  
NAS CORPUS CHR CLOUDY 72 68 87 E7 29.86R  
ROCKPORT CLEAR 67 66 97 E5 29.87R  
KINGSVILLE ARP FAIR 69 63 79 CALM 29.86R  
KINGSVILLE NAS CLOUDY 73 65 75 E9 29.85R  
ALICE CLOUDY 70 56 61 N7 29.87R  

 
   
..VICTORIA AREA OBSERVATIONS
 
 
 
CITY SKY/WX TMP DP RH WIND PRES REMARKS  
PORT LAVACA PTCLDY 65 62 90 CALM 29.90R  
VICTORIA MOCLDY 66 60 81 E6 29.90R  
BEEVILLE FAIR 67 60 76 N6 29.89R  
PLEASANTON NOT AVBL  
SAN ANTONIO PTCLDY 68 38 33 N12 29.94R  

 
   
..LAREDO AREA OBSERVATIONS
 
 
 
CITY SKY/WX TMP DP RH WIND PRES REMARKS  
LAREDO CLOUDY 71 51 49 NW6 29.90R  
COTULLA CLOUDY 67 50 54 N7 29.90R  
DEL RIO CLEAR 69 28 21 NW8G17 30.01R  
MCALLEN CLOUDY 73 63 70 CALM 29.85R  
HEBBRONVILLE PTCLDY 70 45 40 N6 29.90R  

 
   
..OTHER TEXAS OBSERVATIONS
 
 
 
CITY SKY/WX TMP DP RH WIND PRES REMARKS  
BROWNSVILLE PTCLDY 73 66 78 CALM 29.85R  
HOUSTON CLOUDY 67 63 87 NE12 29.94R  
COL. STATION CLOUDY 68 58 70 NE9 29.95R  
AUSTIN PTCLDY 66 51 58 N12 29.96R  
WACO CLEAR 63 51 65 N8 30.03R  
FORT WORTH PTCLDY 62 47 57 N15 30.08R  
WICHITA FALLS CLEAR 55 30 38 N25G31 30.20R  
LUBBOCK PTCLDY 54 24 31 NE22G30 30.25R  
EL PASO MOCLDY 66 19 16 E8 30.18R  

 
   
..MARINE OBSERVATIONS
 
 
 
STATION/POSITION TIME SKY/WX TEMP WIND PRES VSBY WAVE SWELL  
AIR SEA DIR/SP/G HT/PER HT/PER  
(UTC) (F) (DEG/KT/KT) (MB) (MI) (FT/S) (FT/S)  
PORT ARANSAS NOT AVBL  
BUOY 90 E PORT A 2350 73 78 40/ 14/ 16 1010.8 3/ 5  
BUOY 200 E PT IS 2350 78 80 160/ 19/ 23 1008.9 3/ 4  
BUOY 15 E GALVES 2350 68 70 50/ 16/ 19 1012.1 3/ 5  

 
 
 
CLICK HERE TO GO TO PREVIOUS BULLETINS.

The Nexlab TX Page Main Text Page